Weather History for KEAU - December, 2013

Change the Weather History Date:

Monday, December 2, 2013

  Actual Average Record
Temperature  
Mean Temperature 27 °F 24 °F  
Max Temperature 36 °F 32 °F 63 °F (1982)
Min Temperature 18 °F 16 °F -17 °F (1897)
Degree Days  
Heating Degree Days 38 41  
Month to date heating degree days 75 82  
Since 1 July heating degree days 1820 1828  
Cooling Degree Days 0 0  
Month to date cooling degree days 0 0  
Year to date cooling degree days 653 579  
Moisture  
Dew Point 28 °F    
Average Humidity 91    
Maximum Humidity 100    
Minimum Humidity 82    
Precipitation  
Precipitation 0.27 in 0.05 in 0.27 in (2013)
Month to date precipitation 0.27 0.09  
Year to date precipitation 34.64 30.07  
Snow  
Snow 1.70 in 0.30 in 4.00 in (1984)
Month to date snowfall 1.7 0.6  
Since 1 July snowfall 3.9 6.9  
Snow Depth 0.00 in    
Sea Level Pressure  
Sea Level Pressure 29.78 in    
Wind  
Wind Speed 7 mph (ESE)    
Max Wind Speed 16 mph    
Max Gust Speed 24 mph    
Visibility 3 miles    
Events Rain , Snow    
T = Trace of Precipitation, MM = Missing Value Source: NWS Daily Summary

Daily Weather History Graph

Daily Weather History Graph

Search for Another Location

Airport or City:

Trip Planner

Search our weather history database for the weather conditions in past years. The results will help you decide how hot, cold, wet, or windy it might be!

Date:

Astronomy

Dec. 02, 2013 Rise Set
Actual Time 7:24 AM CST 4:25 PM CST
Civil Twilight 6:51 AM CST 4:58 PM CST
Nautical Twilight 6:15 AM CST 5:35 PM CST
Astronomical Twilight 5:39 AM CST 6:10 PM CST
Moon 6:48 AM CST (12/2) 4:30 PM CST (12/2)
Length of Visible Light 10h 07m
Length of Day
9h 00m
Waning Crescent, 0% of the Moon is Illuminated
Dec 2
Waning Crescent
Dec 2
New
Dec 9
First Quarter
Dec 17
Full
Dec 25
Last Quarter

Hourly Weather History & Observations

Time (CST) Temp. Windchill Dew Point Humidity Pressure Visibility Wind Dir Wind Speed Gust Speed Precip Events Conditions
12:56 AM 19.9 °F - 18.0 °F 92% 29.96 in 5.0 mi Calm Calm - N/A   Clear
1:56 AM 19.9 °F 14.9 °F 18.0 °F 92% 29.94 in 5.0 mi ENE 3.5 mph - N/A   Scattered Clouds
2:56 AM 19.0 °F - 17.1 °F 92% 29.94 in 6.0 mi Calm Calm - N/A   Clear
3:56 AM 21.0 °F 14.6 °F 19.0 °F 92% 29.92 in 5.0 mi NNE 4.6 mph - N/A   Clear
4:56 AM 24.1 °F - 21.0 °F 88% 29.89 in 5.0 mi Calm Calm - N/A   Overcast
5:56 AM 24.1 °F 19.7 °F 21.9 °F 91% 29.89 in 5.0 mi NE 3.5 mph - N/A   Overcast
6:56 AM 25.0 °F - 23.0 °F 92% 29.88 in 6.0 mi Calm Calm - N/A   Overcast
7:56 AM 27.0 °F - 24.1 °F 89% 29.88 in 6.0 mi Calm Calm - N/A   Overcast
8:56 AM 28.0 °F 24.2 °F 24.1 °F 85% 29.86 in 6.0 mi SE 3.5 mph - N/A   Overcast
9:12 AM 28.4 °F - 24.8 °F 86% 29.82 in 2.0 mi Calm Calm - 0.00 in Snow Light Snow
9:21 AM 28.4 °F - 24.8 °F 86% 29.82 in 1.5 mi Calm Calm - 0.00 in Snow Light Snow
9:49 AM 28.4 °F 22.2 °F 24.8 °F 86% 29.81 in 3.0 mi ESE 5.8 mph - 0.00 in Snow Light Snow
9:56 AM 28.9 °F 21.1 °F 25.0 °F 85% 29.85 in 4.0 mi SE 8.1 mph - 0.00 in   Overcast
10:28 AM 30.2 °F 25.4 °F 26.6 °F 86% 29.80 in 1.8 mi SE 4.6 mph - 0.00 in Snow Light Snow
10:37 AM 30.2 °F 26.7 °F 26.6 °F 86% 29.80 in 1.0 mi SE 3.5 mph - 0.00 in Snow Light Snow
10:56 AM 30.0 °F 24.1 °F 27.0 °F 88% 29.84 in 1.0 mi SE 5.8 mph - 0.00 in Snow Light Snow
11:06 AM 30.2 °F 24.3 °F 26.6 °F 86% 29.79 in 0.8 mi ESE 5.8 mph - 0.01 in Snow Light Snow
11:23 AM 30.2 °F 24.3 °F 28.4 °F 93% 29.79 in 1.0 mi SE 5.8 mph - 0.01 in Snow Light Snow
11:56 AM 30.9 °F 23.5 °F 28.9 °F 92% 29.81 in 1.2 mi ESE 8.1 mph - 0.02 in Snow Light Snow
12:52 PM 32.0 °F 23.6 °F 30.2 °F 93% 29.74 in 2.0 mi East 10.4 mph - 0.00 in Snow Light Snow
12:56 PM 32.0 °F 24.2 °F 30.0 °F 92% 29.77 in 3.0 mi East 9.2 mph - 0.00 in Snow Light Snow
1:56 PM 34.0 °F 26.6 °F 30.0 °F 85% 29.74 in 4.0 mi East 9.2 mph - N/A   Overcast
2:56 PM 34.0 °F 27.2 °F 30.0 °F 85% 29.73 in 4.0 mi East 8.1 mph - 0.00 in Snow Light Snow
3:56 PM 35.1 °F 30.1 °F 30.0 °F 82% 29.73 in 5.0 mi East 5.8 mph - 0.00 in   Haze
4:56 PM 36.0 °F 28.5 °F 30.0 °F 79% 29.72 in 6.0 mi East 10.4 mph - 0.00 in Snow Light Snow
5:56 PM 35.1 °F 26.4 °F 30.0 °F 82% 29.72 in 5.0 mi ESE 12.7 mph 20.7 mph 0.00 in Snow Light Snow
6:08 PM 33.8 °F 24.8 °F 30.2 °F 87% 29.68 in 2.5 mi ESE 12.7 mph 24.2 mph 0.01 in Snow Light Snow
6:32 PM 33.8 °F 25.8 °F 32.0 °F 93% 29.68 in 2.0 mi ESE 10.4 mph - 0.01 in Snow Light Snow
6:53 PM 33.8 °F 25.8 °F 32.0 °F 93% 29.68 in 1.8 mi ESE 10.4 mph 17.3 mph 0.02 in Snow Light Snow
6:56 PM 33.1 °F 24.9 °F 32.0 °F 96% 29.71 in 1.8 mi ESE 10.4 mph - 0.02 in Snow Light Snow
7:05 PM 33.8 °F 25.8 °F 32.0 °F 93% 29.68 in 2.0 mi ESE 10.4 mph - 0.00 in Snow Light Snow
7:14 PM 33.8 °F 25.8 °F 32.0 °F 93% 29.68 in 1.2 mi ESE 10.4 mph 18.4 mph 0.00 in Snow Light Snow
7:56 PM 33.1 °F 24.4 °F 32.0 °F 96% 29.70 in 1.2 mi ESE 11.5 mph - 0.05 in Snow Light Snow
8:26 PM 33.8 °F 24.3 °F 32.0 °F 93% 29.66 in 0.8 mi ESE 13.8 mph 19.6 mph 0.02 in Snow Light Snow
8:35 PM 33.8 °F 23.5 °F 32.0 °F 93% 29.66 in 1.0 mi ESE 16.1 mph 20.7 mph 0.03 in Snow Light Snow
8:56 PM 33.1 °F 23.9 °F 32.0 °F 96% 29.70 in 2.0 mi ESE 12.7 mph 20.7 mph 0.07 in Snow Light Snow
9:14 PM 33.8 °F 25.3 °F 32.0 °F 93% 29.67 in 4.0 mi ESE 11.5 mph - 0.03 in Rain Rain
9:56 PM 34.0 °F 26.0 °F 32.0 °F 92% 29.71 in 4.0 mi SE 10.4 mph - 0.04 in Snow Light Snow
10:56 PM 34.0 °F 25.0 °F 32.0 °F 92% 29.70 in 3.0 mi ESE 12.7 mph - 0.01 in   Overcast
11:56 PM 34.0 °F 24.6 °F 32.0 °F 92% 29.70 in 4.0 mi SE 13.8 mph 18.4 mph 0.00 in Rain Light Rain